GIECC EGHQ-EGHH

Flight info

Callsign GIECC
Flight time 0h 50m
Altitude
Route
Aircraft

Departure

Time 2026-05-05 18:42
Airport Cornwall Airport Newquay (EGHQ)

Arrival

Time 2026-05-05 19:32
Airport Bournemouth Airport (EGHH)
Time Latitude Longitude Altitude Speed Heading
2026-05-05 18:41 50.43161 -4.65164 6127 ft 201 kts 98°
2026-05-05 18:42 50.42910 -4.63022 6115 ft 199 kts 95°
2026-05-05 18:42 50.42803 -4.60842 6175 ft 200 kts 89°
2026-05-05 18:42 50.42744 -4.58663 6096 ft 207 kts 88°
2026-05-05 18:42 50.42903 -4.56320 6133 ft 224 kts 78°
2026-05-05 18:43 50.43146 -4.53774 6112 ft 246 kts 78°
2026-05-05 18:43 50.43428 -4.51158 6325 ft 249 kts 79°
2026-05-05 18:43 50.43598 -4.48471 6149 ft 246 kts 85°
2026-05-05 18:43 50.43537 -4.45840 6039 ft 236 kts 97°
2026-05-05 18:44 50.43231 -4.44216 5855 ft 236 kts 112°
2026-05-05 18:44 50.42692 -4.41811 5789 ft 232 kts 103°
2026-05-05 18:44 50.42416 -4.39285 5972 ft 239 kts 93°
2026-05-05 18:44 50.42278 -4.36738 6548 ft 231 kts 91°
2026-05-05 18:45 50.42222 -4.34211 5729 ft 223 kts 90°
2026-05-05 18:45 50.42013 -4.31375 3918 ft 270 kts 96°
2026-05-05 18:45 50.41827 -4.28711 3904 ft 217 kts 93°
2026-05-05 18:45 50.41686 -4.26603 3766 ft 173 kts 89°
2026-05-05 18:46 50.41583 -4.24865 3018 ft 155 kts 93°
2026-05-05 18:46 50.41625 -4.23078 2320 ft 155 kts 83°
2026-05-05 18:46 50.41637 -4.21261 2384 ft 183 kts 82°
2026-05-05 18:46 50.41786 -4.19217 2687 ft 197 kts 79°
2026-05-05 18:47 50.41939 -4.17049 3098 ft 204 kts 80°
2026-05-05 18:47 50.42078 -4.14792 3473 ft 211 kts 82°
2026-05-05 18:47 50.42057 -4.12499 3976 ft 212 kts 96°
2026-05-05 18:47 50.41885 -4.10194 4391 ft 215 kts 90°
2026-05-05 18:48 50.41834 -4.07815 4772 ft 218 kts 93°
2026-05-05 18:48 50.41713 -4.05461 5282 ft 217 kts 88°
2026-05-05 18:48 50.41654 -4.03048 5595 ft 226 kts 95°
2026-05-05 18:48 50.41237 -4.00616 5892 ft 236 kts 110°
2026-05-05 18:49 50.40478 -3.98413 6489 ft 231 kts 123°
2026-05-05 18:49 50.39528 -3.96295 6688 ft 240 kts 124°
2026-05-05 18:49 50.38523 -3.94219 7109 ft 241 kts 131°
2026-05-05 18:49 50.37171 -3.92548 7214 ft 254 kts 148°
2026-05-05 18:50 50.35566 -3.91469 7641 ft 250 kts 164°
2026-05-05 18:50 50.33855 -3.90842 7832 ft 259 kts 168°
2026-05-05 18:50 50.32027 -3.90250 7704 ft 276 kts 168°
2026-05-05 18:50 50.30146 -3.89570 7922 ft 275 kts 166°
2026-05-05 18:51 50.28733 -3.87963 8479 ft 254 kts 114°
2026-05-05 18:51 50.28402 -3.85052 6966 ft 306 kts 81°
2026-05-05 18:51 50.29156 -3.81818 6258 ft 317 kts 59°
2026-05-05 18:51 50.30262 -3.79128 5917 ft 269 kts 59°
2026-05-05 18:52 50.30804 -3.76531 5302 ft 245 kts 63°
2026-05-05 18:52 50.31980 -3.74592 5192 ft 246 kts 35°
2026-05-05 18:52 50.33449 -3.73081 5121 ft 257 kts 30°
2026-05-05 18:52 50.34957 -3.71675 5304 ft 258 kts 29°
2026-05-05 18:53 50.36604 -3.70526 5542 ft 254 kts 16°
2026-05-05 18:53 50.38297 -3.69717 5483 ft 263 kts 15°
2026-05-05 18:53 50.40133 -3.68999 5345 ft 267 kts
2026-05-05 18:53 50.41894 -3.68450 5413 ft 260 kts 13°
2026-05-05 18:54 50.43697 -3.67757 5107 ft 274 kts 13°
2026-05-05 18:54 50.45548 -3.67070 5112 ft 274 kts 11°
2026-05-05 18:54 50.47413 -3.66447 5161 ft 272 kts 12°
2026-05-05 18:54 50.49236 -3.65741 5149 ft 273 kts 13°
2026-05-05 18:55 50.51120 -3.64958 4722 ft 286 kts 15°
2026-05-05 18:55 50.53027 -3.64081 4841 ft 273 kts 17°
2026-05-05 18:55 50.54782 -3.63158 5029 ft 268 kts 17°
2026-05-05 18:55 50.56581 -3.62147 4840 ft 275 kts 20°
2026-05-05 18:56 50.58337 -3.61120 5033 ft 269 kts 19°
2026-05-05 18:56 50.60137 -3.60370 5189 ft 264 kts 12°
2026-05-05 18:56 50.61991 -3.59687 4766 ft 279 kts 13°
2026-05-05 18:56 50.63842 -3.58864 4901 ft 272 kts 16°
2026-05-05 18:57 50.65561 -3.57975 4499 ft 249 kts 22°
2026-05-05 18:57 50.67046 -3.56838 4193 ft 227 kts 28°
2026-05-05 18:57 50.68396 -3.55553 3107 ft 228 kts 31°
2026-05-05 18:57 50.69656 -3.54185 2361 ft 207 kts 33°
2026-05-05 18:58 50.70695 -3.52900 1950 ft 173 kts 40°
2026-05-05 18:58 50.71382 -3.51615 1570 ft 137 kts 54°
2026-05-05 18:58 50.71844 -3.50318 1276 ft 138 kts 59°
2026-05-05 18:58 50.72230 -3.48829 1085 ft 161 kts 67°
2026-05-05 18:59 50.72549 -3.47071 895 ft 173 kts 75°
2026-05-05 18:59 50.72795 -3.45323 555 ft 142 kts 73°
2026-05-05 18:59 50.73040 -3.43874 333 ft 143 kts 73°
2026-05-05 18:59 50.73275 -3.42272 384 ft 158 kts 76°
2026-05-05 19:00 50.73551 -3.40491 837 ft 167 kts 71°
2026-05-05 19:00 50.73859 -3.38772 1605 ft 157 kts 70°
2026-05-05 19:00 50.74208 -3.37130 2152 ft 167 kts 69°
2026-05-05 19:00 50.74261 -3.35252 2725 ft 168 kts 96°
2026-05-05 19:01 50.74001 -3.33500 3237 ft 179 kts 86°
2026-05-05 19:01 50.74421 -3.31508 3512 ft 183 kts 67°
2026-05-05 19:01 50.74633 -3.29510 4063 ft 194 kts 76°
2026-05-05 19:01 50.74943 -3.27343 4328 ft 207 kts 71°
2026-05-05 19:02 50.75159 -3.25069 4695 ft 218 kts 84°
2026-05-05 19:02 50.75243 -3.22662 5158 ft 216 kts 80°
2026-05-05 19:02 50.75244 -3.20159 5180 ft 241 kts 95°
2026-05-05 19:02 50.74928 -3.17509 4968 ft 259 kts 101°
2026-05-05 19:03 50.74349 -3.14682 4739 ft 278 kts 110°
2026-05-05 19:03 50.73492 -3.12255 5512 ft 241 kts 120°
2026-05-05 19:03 50.72396 -3.09897 4603 ft 273 kts 128°
2026-05-05 19:03 50.71205 -3.07794 4179 ft 263 kts 116°
2026-05-05 19:04 50.70970 -3.04889 3704 ft 279 kts 85°
2026-05-05 19:04 50.71084 -3.01787 3472 ft 285 kts 82°
2026-05-05 19:04 50.71323 -2.98667 3449 ft 277 kts 79°
2026-05-05 19:04 50.71587 -2.95713 3691 ft 269 kts 81°
2026-05-05 19:05 50.71703 -2.92947 4640 ft 237 kts 86°
2026-05-05 19:05 50.71685 -2.90361 5013 ft 239 kts 89°
2026-05-05 19:05 50.71683 -2.87640 4909 ft 257 kts 86°
2026-05-05 19:05 50.71750 -2.84768 4869 ft 266 kts 85°
2026-05-05 19:06 50.71685 -2.81793 4896 ft 271 kts 94°
2026-05-05 19:06 50.71381 -2.78827 2838 ft 320 kts 101°
2026-05-05 19:06 50.70718 -2.75357 2184 ft 326 kts 104°
2026-05-05 19:06 50.70260 -2.72104 2341 ft 279 kts 97°
2026-05-05 19:07 50.70176 -2.69199 2122 ft 251 kts 86°
2026-05-05 19:07 50.70186 -2.66571 2251 ft 232 kts 87°
2026-05-05 19:07 50.70045 -2.64030 2145 ft 232 kts 93°
2026-05-05 19:07 50.69799 -2.61509 2100 ft 227 kts 92°
2026-05-05 19:08 50.69688 -2.59139 2460 ft 206 kts 90°
2026-05-05 19:08 50.69608 -2.56957 2910 ft 193 kts 88°
2026-05-05 19:08 50.69588 -2.54813 2893 ft 198 kts 86°
2026-05-05 19:08 50.69665 -2.52607 2509 ft 213 kts 81°
2026-05-05 19:09 50.69776 -2.50134 2303 ft 212 kts 86°
2026-05-05 19:09 50.69690 -2.47858 2655 ft 216 kts 92°
2026-05-05 19:09 50.69244 -2.45493 2681 ft 237 kts 112°
2026-05-05 19:09 50.68400 -2.43266 1963 ft 237 kts 120°
2026-05-05 19:10 50.67685 -2.41001 1583 ft 216 kts 103°
2026-05-05 19:10 50.67257 -2.38937 1912 ft 198 kts 101°
2026-05-05 19:10 50.66908 -2.36716 1947 ft 222 kts 97°
2026-05-05 19:10 50.66689 -2.34399 2599 ft 209 kts 91°
2026-05-05 19:11 50.66901 -2.32133 2751 ft 210 kts 66°
2026-05-05 19:11 50.67577 -2.30072 3022 ft 215 kts 59°
2026-05-05 19:11 50.68279 -2.27984 3396 ft 218 kts 59°
2026-05-05 19:11 50.69002 -2.25855 3612 ft 223 kts 60°
2026-05-05 19:12 50.69718 -2.23644 3637 ft 228 kts 62°
2026-05-05 19:12 50.70352 -2.21323 3414 ft 233 kts 66°
2026-05-05 19:12 50.70870 -2.18943 2947 ft 217 kts 69°
2026-05-05 19:12 50.71281 -2.16737 2822 ft 211 kts 68°
2026-05-05 19:13 50.71741 -2.14652 2540 ft 184 kts 69°
2026-05-05 19:13 50.72137 -2.12902 2346 ft 181 kts 64°
2026-05-05 19:13 50.72658 -2.10944 2399 ft 196 kts 64°
2026-05-05 19:13 50.73091 -2.09027 1950 ft 169 kts 66°
2026-05-05 19:14 50.73475 -2.07297 1774 ft 180 kts 65°
2026-05-05 19:14 50.73907 -2.05277 1733 ft 203 kts 66°
2026-05-05 19:14 50.74417 -2.03348 1624 ft 180 kts 63°
2026-05-05 19:14 50.74880 -2.01591 1480 ft 168 kts 64°
2026-05-05 19:15 50.75279 -1.99895 1397 ft 165 kts 67°
2026-05-05 19:15 50.75602 -1.98159 1375 ft 165 kts 71°
2026-05-05 19:15 50.75936 -1.96375 1133 ft 177 kts 70°
2026-05-05 19:15 50.76235 -1.94396 967 ft 192 kts 77°
2026-05-05 19:16 50.76499 -1.92351 1045 ft 181 kts 72°
2026-05-05 19:16 50.76867 -1.90562 831 ft 159 kts 66°
2026-05-05 19:16 50.77048 -1.89039 269 ft 141 kts 84°
2026-05-05 19:16 50.77397 -1.87698 307 ft 127 kts 60°
2026-05-05 19:17 50.77633 -1.86478 144 ft 110 kts 70°
2026-05-05 19:17 50.77841 -1.85247 71 ft 116 kts 73°
2026-05-05 19:17 50.78048 -1.84022 173 ft 119 kts 72°
2026-05-05 19:17 50.78342 -1.82628 286 ft 153 kts 53°
2026-05-05 19:18 50.79264 -1.82075 881 ft 148 kts 355°
2026-05-05 19:18 50.80089 -1.83015 1476 ft 154 kts 310°
2026-05-05 19:18 50.80463 -1.84522 1729 ft 143 kts 296°
2026-05-05 19:18 50.80788 -1.86021 1510 ft 147 kts 294°
2026-05-05 19:19 50.80993 -1.87695 1569 ft 178 kts 253°
2026-05-05 19:19 50.80426 -1.89476 1958 ft 187 kts 243°
2026-05-05 19:19 50.79751 -1.91065 2306 ft 147 kts 233°
2026-05-05 19:19 50.79002 -1.91909 1867 ft 134 kts 192°
2026-05-05 19:20 50.78084 -1.91624 1611 ft 139 kts 152°
2026-05-05 19:20 50.77658 -1.90464 1337 ft 126 kts 95°
2026-05-05 19:20 50.77495 -1.89076 1092 ft 128 kts 92°
2026-05-05 19:20 50.77497 -1.87670 795 ft 129 kts 77°
2026-05-05 19:21 50.77687 -1.86299 374 ft 120 kts 74°
2026-05-05 19:21 50.77874 -1.85021 73 ft 113 kts 74°
2026-05-05 19:21 50.78055 -1.83860 176 ft 108 kts 72°
2026-05-05 19:21 50.78327 -1.82671 431 ft 117 kts 44°
2026-05-05 19:22 50.79029 -1.82113 774 ft 117 kts
2026-05-05 19:22 50.79841 -1.82360 1090 ft 128 kts 321°
2026-05-05 19:22 50.80277 -1.83763 1358 ft 162 kts 288°
2026-05-05 19:22 50.80516 -1.85613 1633 ft 182 kts 279°
2026-05-05 19:23 50.80131 -1.87592 1973 ft 199 kts 247°
2026-05-05 19:23 50.79564 -1.89600 1132 ft 207 kts 259°
2026-05-05 19:23 50.79943 -1.91468 1063 ft 190 kts 324°
2026-05-05 19:23 50.81195 -1.91879 1216 ft 193 kts 23°
2026-05-05 19:24 50.81767 -1.90097 1402 ft 206 kts 95°
2026-05-05 19:24 50.80933 -1.88281 1485 ft 219 kts 154°
2026-05-05 19:24 50.79772 -1.88933 1993 ft 183 kts 254°
2026-05-05 19:24 50.80150 -1.90615 1398 ft 179 kts 339°
2026-05-05 19:25 50.81310 -1.90497 1038 ft 173 kts 32°
2026-05-05 19:25 50.81893 -1.89020 977 ft 160 kts 82°
2026-05-05 19:25 50.81505 -1.87459 725 ft 158 kts 141°
2026-05-05 19:25 50.80526 -1.87155 585 ft 140 kts 200°
2026-05-05 19:26 50.79796 -1.88209 568 ft 157 kts 243°
2026-05-05 19:26 50.79621 -1.89901 936 ft 164 kts 287°
2026-05-05 19:26 50.80288 -1.91387 1132 ft 183 kts 325°
2026-05-05 19:26 50.81557 -1.91702 1383 ft 195 kts 25°
2026-05-05 19:27 50.82208 -1.89893 1364 ft 215 kts 95°
2026-05-05 19:27 50.81202 -1.88305 1316 ft 223 kts 172°
2026-05-05 19:27 50.79874 -1.89243 1365 ft 216 kts 241°
2026-05-05 19:27 50.79690 -1.91501 1313 ft 210 kts 289°
2026-05-05 19:28 50.80720 -1.92728 1679 ft 188 kts
2026-05-05 19:28 50.81834 -1.91709 1719 ft 203 kts 52°
2026-05-05 19:28 50.81802 -1.89595 861 ft 215 kts 126°
2026-05-05 19:28 50.80971 -1.88791 806 ft 217 kts 171°
2026-05-05 19:29 50.79403 -1.90452 1064 ft 219 kts 244°
2026-05-05 19:29 50.78972 -1.91819 1585 ft 209 kts 251°
2026-05-05 19:29 50.78485 -1.93811 1793 ft 158 kts 234°
2026-05-05 19:29 50.77466 -1.94144 2058 ft 172 kts 163°
2026-05-05 19:30 50.76592 -1.93225 1548 ft 135 kts 102°
2026-05-05 19:30 50.76689 -1.91938 1066 ft 113 kts 71°
2026-05-05 19:30 50.76898 -1.90751 788 ft 110 kts 68°
2026-05-05 19:30 50.77145 -1.89645 725 ft 105 kts 70°
2026-05-05 19:31 50.77293 -1.88510 516 ft 107 kts 70°
2026-05-05 19:31 50.77481 -1.87370 354 ft 108 kts 72°
2026-05-05 19:31 50.77682 -1.86202 220 ft 113 kts 71°
2026-05-05 19:31 50.77880 -1.85005 52 ft 107 kts 71°
2026-05-05 19:32 50.78054 -1.84090 41 ft 53 kts 103°
2026-05-05 19:32 50.78173 -1.83936 42 ft 20 kts 342°
2026-05-05 19:32 50.78252 -1.83980 42 ft 2 kts 340°
2026-05-05 19:32 50.78253 -1.83981 42 ft 0 kts 340°
2026-05-05 19:33 50.78309 -1.84003 42 ft 15 kts 351°
2026-05-05 19:33 50.78395 -1.84032 42 ft 12 kts 343°
2026-05-05 19:33 50.78462 -1.84011 42 ft 10 kts 85°
2026-05-05 19:34 50.78441 -1.83855 42 ft 23 kts 106°
2026-05-05 19:34 50.78404 -1.83629 41 ft 19 kts 102°
2026-05-05 19:34 50.78373 -1.83450 41 ft 13 kts 112°
2026-05-05 19:35 50.78423 -1.83342 40 ft 5 kts 17°
2026-05-05 19:35 50.78438 -1.83337 40 ft 0 kts
2026-05-05 19:35 50.78473 -1.83342 40 ft 5 kts 22°
2026-05-05 19:35 50.78494 -1.83323 40 ft 10 kts 94°
2026-05-05 19:36 50.78491 -1.83312 41 ft 0 kts 98°
2026-05-05 19:36 50.78490 -1.83309 40 ft 0 kts 98°